Wind_Speed
60 62 58 57 53 56 55 49 41 24 17 31 33 32 18 27 29 23 14 12 10 17 13 19 21 24 30 35 33 29 27 30 31 31 31 29 30 30 30 31 27 23 20 21
43 45 47 51 54 56 52 49 37 24 14 34 31 31 23 27 27 19 12 9 11 15 12 16 23 30 34 38 34 26 26 27 28 29 28 28 30 28 32 27 20 20 21 24
43 28 31 33 40 46 47 43 29 22 18 35 36 32 26 26 21 13 9 10 11 12 15 18 27 34 38 40 28 24 25 25 27 27 26 28 26 25 24 23 23 25 29 27
45 38 34 30 33 37 39 24 24 26 27 33 38 40 27 26 13 15 12 10 7 11 14 18 24 29 33 29 22 21 22 26 25 25 25 26 24 24 23 25 25 26 23 17
44 37 35 33 26 28 24 27 29 28 31 35 35 40 15 21 14 14 12 3 4 7 15 18 22 22 20 20 21 21 23 24 24 24 24 24 22 22 21 24 24 20 19 16
47 42 36 30 29 37 34 32 31 32 37 47 30 39 11 17 18 11 4 3 9 9 16 25 18 19 21 19 19 19 21 22 23 23 23 19 19 21 23 23 21 17 15 11
51 52 42 36 39 40 41 39 38 41 47 49 27 34 15 18 14 10 5 4 10 12 20 20 16 18 17 17 15 18 19 20 19 21 16 16 19 20 21 19 17 15 12 8
46 47 48 41 41 39 39 41 45 48 50 39 29 28 15 19 11 9 5 5 8 13 19 17 15 14 14 11 15 16 18 16 18 18 15 17 18 16 19 14 16 14 10 4
47 43 43 41 41 40 38 47 41 43 39 39 38 23 27 14 5 3 3 3 9 16 23 18 14 14 12 12 14 15 15 15 18 16 13 15 13 16 16 13 15 8 9 7
47 43 39 37 35 38 41 46 43 45 44 42 30 27 20 12 8 5 4 4 10 19 23 12 13 13 8 12 11 14 13 12 15 12 10 10 10 17 13 12 8 11 9 11
53 47 38 38 39 40 43 47 44 42 39 35 26 22 18 14 13 8 5 4 10 18 15 10 12 10 11 8 9 12 9 10 11 11 7 9 9 15 13 13 13 12 11 13
59 53 43 36 43 39 42 39 36 37 31 30 27 20 22 17 11 7 6 1 15 14 15 10 11 10 11 6 8 9 7 6 9 8 7 9 9 12 10 16 13 11 12 13
66 58 49 43 47 43 42 37 39 36 35 35 29 22 21 16 8 6 6 2 12 15 16 9 10 8 9 5 7 6 4 5 7 9 6 7 9 12 9 14 15 12 12 12
70 64 56 53 47 41 41 44 43 41 39 27 25 23 21 19 13 12 5 6 7 12 9 10 8 7 6 4 6 6 3 6 8 6 3 7 8 12 9 12 13 16 14 11
70 65 57 51 46 44 43 40 39 38 30 34 22 24 23 20 16 11 7 2 4 7 9 9 7 5 6 3 5 6 4 5 7 7 4 6 9 12 14 14 15 14 13 13
70 67 62 57 51 47 47 44 41 38 34 30 23 23 20 19 18 14 9 3 2 5 10 6 6 3 6 3 5 6 5 5 6 6 6 6 9 14 15 15 14 14 13 11
68 67 65 59 53 50 54 49 43 36 35 30 28 21 24 22 14 12 8 4 1 2 5 5 6 3 4 4 5 5 4 5 6 5 6 11 12 13 14 12 10 11 11 14
71 68 65 60 57 60 53 47 42 38 34 29 24 19 20 21 18 14 13 8 2 1 4 5 4 3 3 3 5 5 3 4 6 5 10 15 15 15 16 18 19 15 15 15
73 73 68 63 60 59 54 48 46 43 38 31 27 21 17 14 24 25 17 11 6 5 3 5 3 5 6 2 3 5 4 2 6 7 7 12 12 12 13 16 19 21 20 18
68 70 71 67 61 62 59 53 49 44 42 37 31 25 18 19 29 21 15 12 10 7 4 5 5 4 8 5 2 5 4 2 4 7 8 7 8 10 14 16 18 19 19 23
63 66 67 62 62 63 58 55 49 46 45 39 37 32 30 29 20 20 18 14 13 8 8 6 3 6 9 9 5 4 5 4 3 6 8 10 10 11 14 16 16 16 17 17
55 61 60 54 58 59 56 55 51 48 43 40 36 35 35 25 22 25 19 17 16 13 9 4 3 6 7 13 10 5 6 5 6 6 7 8 11 10 10 13 13 12 12 12
45 65 62 50 57 61 59 53 57 52 46 43 34 40 36 30 30 25 20 18 15 14 12 9 6 4 7 9 13 9 7 7 6 10 7 7 9 9 10 11 13 14 16 16
41 66 66 54 52 59 55 60 59 56 51 47 41 37 34 34 32 25 21 20 19 15 14 12 10 7 3 6 10 12 10 9 7 8 11 9 7 11 11 13 14 16 15 15
30 63 69 61 54 58 53 60 55 56 59 53 46 44 40 39 37 33 22 21 19 18 17 15 15 12 7 7 11 9 14 12 10 7 11 12 10 10 10 12 14 14 14 14
34 59 65 65 57 62 61 58 66 61 51 48 43 41 38 36 39 35 31 27 24 22 18 21 20 18 12 10 11 13 10 16 14 11 10 12 12 13 12 12 14 15 14 13
Wind_Direction
238 240 244 247 251 256 257 263 265 230 252 259 253 259 253 255 270 263 254 258 293 316 327 311 308 316 311 320 316 304 301 310 310 309 311 311 312 313 311 313 316 308 301 304
244 248 251 255 255 255 252 254 250 224 240 254 248 252 255 270 272 271 266 292 310 317 311 299 305 305 301 315 310 297 310 313 311 309 311 312 314 316 319 322 323 322 311 310
247 261 255 248 246 246 246 248 224 234 234 245 255 257 264 270 265 264 260 299 310 315 313 304 289 290 297 307 299 304 311 311 308 312 311 314 316 316 317 327 326 321 312 303
243 242 240 251 242 239 241 214 251 244 237 240 255 262 256 260 255 263 278 294 326 315 301 295 288 290 298 297 302 313 311 310 312 307 309 316 312 318 321 331 330 321 326 317
236 239 242 242 237 220 199 240 245 237 232 238 234 259 252 245 246 267 269 254 270 343 335 314 296 296 291 293 308 310 313 314 308 303 310 310 315 320 327 332 329 319 324 326
233 232 234 231 234 216 226 237 238 235 232 239 229 252 221 227 239 236 173 245 267 331 325 322 299 293 292 299 305 310 315 313 306 311 310 310 317 322 330 330 327 318 331 338
224 228 226 227 227 224 228 232 233 236 237 244 241 245 201 222 209 184 196 273 291 349 335 327 307 293 297 305 309 315 315 311 310 316 311 320 320 328 334 333 327 335 340 348
229 229 228 223 228 228 231 239 239 237 235 245 233 234 208 209 191 184 211 259 323 349 330 316 316 310 313 315 321 316 314 310 311 314 306 318 322 340 347 338 338 344 2 29
223 223 226 229 233 232 236 236 238 240 240 245 242 216 210 212 209 187 206 291 337 338 318 299 308 315 310 324 317 312 314 303 311 322 308 315 332 342 353 342 346 13 36 100
220 224 221 220 227 213 220 236 222 224 225 232 231 216 202 206 207 188 196 345 352 317 315 311 325 320 324 318 308 316 315 309 321 333 329 324 342 356 0 8 29 46 62 119
208 212 211 210 213 209 217 220 213 224 228 228 221 221 200 206 221 183 152 322 320 308 336 329 327 316 328 310 313 320 315 315 347 352 347 346 5 15 27 42 43 52 88 115
206 206 200 200 212 207 213 222 221 229 222 219 218 196 204 208 198 192 141 297 306 324 347 318 322 309 324 303 317 321 317 318 8 359 9 19 23 27 37 50 37 75 103 120
206 204 194 197 207 205 206 205 211 219 221 218 217 176 200 206 195 202 141 324 294 336 344 295 320 316 323 297 319 319 339 13 5 2 4 30 33 38 40 61 69 82 102 116
202 202 196 197 198 198 204 207 210 212 219 213 210 180 196 208 217 224 144 234 301 321 341 292 325 313 326 290 319 320 323 6 356 5 355 33 31 44 64 77 77 73 90 112
201 201 200 195 198 197 203 210 215 217 213 219 200 205 209 212 215 208 199 200 284 312 309 312 312 309 339 276 309 318 337 7 14 31 52 38 54 52 78 89 89 95 93 98
199 199 201 194 198 197 203 204 209 216 215 217 208 207 212 218 209 210 199 213 224 305 300 315 324 299 344 275 295 318 351 30 26 46 47 45 76 73 92 85 86 94 97 102
193 197 200 192 197 200 206 202 206 210 213 208 201 198 207 231 207 215 220 222 219 264 350 2 332 275 340 327 285 305 349 41 50 42 64 91 91 80 82 89 100 105 95 119
195 196 199 191 194 204 204 204 208 208 211 207 202 190 204 231 247 237 239 227 192 298 348 7 332 261 273 340 309 290 312 40 68 74 103 102 99 91 78 77 86 108 105 108
200 200 201 196 199 207 207 202 208 211 209 209 201 197 199 217 232 235 232 223 188 270 286 310 318 251 254 280 333 301 288 24 90 109 121 110 104 99 93 90 92 95 90 102
202 201 202 202 199 207 208 203 208 212 214 211 196 185 217 219 229 233 218 200 216 204 235 295 293 255 241 234 287 310 294 254 124 127 134 121 104 102 102 100 99 101 101 94
204 203 201 206 197 206 205 204 206 210 211 208 203 191 211 229 224 229 223 197 211 204 214 271 300 258 229 228 248 287 285 250 199 147 140 132 121 120 113 107 101 98 100 102
205 209 205 209 201 205 199 203 201 212 215 211 204 204 205 200 214 219 217 215 204 206 207 237 275 222 242 239 243 264 275 248 224 197 161 149 138 140 135 127 121 111 110 113
190 206 207 206 206 204 203 198 202 209 214 213 210 210 206 200 205 207 214 219 221 201 206 201 245 241 237 255 237 249 256 250 229 224 206 183 157 152 144 139 134 126 118 113
185 203 209 203 208 209 207 199 202 209 212 211 212 206 206 201 205 207 211 211 220 221 211 212 216 245 166 214 237 243 240 241 237 226 223 215 187 163 152 150 146 138 133 127
184 192 205 202 205 207 208 203 198 211 213 215 215 218 217 219 218 217 212 205 214 225 220 219 219 226 232 211 226 231 234 226 233 221 220 225 209 185 173 168 164 158 152 147
184 172 194 198 203 209 209 206 206 212 211 212 214 212 218 224 218 221 219 218 220 226 221 216 220 226 222 232 218 228 241 226 226 227 218 221 218 200 199 197 190 186 182 175
Height
5739 5743 5740 5749 5760 5765 5771 5772 5777 5784 5786 5779 5781 5780 5788 5786 5784 5782 5782 5781 5778 5777 5776 5777 5775 5773 5770 5766 5762 5758 5755 5750 5745 5742 5738 5733 5728 5723 5718 5712 5706 5700 5696 5693
5733 5728 5740 5748 5750 5753 5759 5763 5770 5776 5782 5772 5776 5775 5780 5780 5778 5778 5779 5776 5774 5773 5773 5772 5771 5768 5765 5761 5757 5753 5750 5745 5742 5738 5733 5729 5724 5719 5713 5706 5702 5697 5692 5689
5724 5736 5735 5736 5739 5742 5747 5755 5767 5771 5773 5767 5768 5769 5774 5774 5773 5774 5773 5771 5770 5770 5768 5767 5765 5764 5760 5757 5753 5750 5745 5741 5738 5734 5730 5725 5721 5717 5711 5704 5699 5693 5688 5683
5715 5724 5726 5726 5729 5734 5740 5754 5760 5763 5763 5764 5761 5757 5768 5768 5768 5768 5767 5767 5767 5766 5765 5763 5762 5758 5755 5753 5749 5745 5741 5738 5735 5731 5726 5722 5718 5713 5707 5701 5695 5689 5684 5679
5708 5716 5721 5723 5729 5732 5741 5748 5752 5753 5753 5753 5757 5753 5762 5762 5763 5764 5763 5763 5764 5763 5761 5758 5755 5753 5751 5748 5745 5741 5738 5735 5731 5727 5723 5719 5715 5710 5704 5698 5692 5686 5681 5677
5698 5706 5712 5719 5722 5725 5734 5738 5742 5742 5743 5738 5755 5750 5759 5759 5760 5762 5761 5762 5761 5759 5755 5754 5750 5749 5746 5744 5741 5738 5735 5732 5727 5723 5720 5716 5713 5707 5701 5695 5689 5684 5680 5677
5683 5691 5700 5709 5711 5718 5724 5728 5731 5733 5732 5731 5750 5746 5755 5754 5756 5757 5757 5759 5756 5754 5752 5748 5747 5745 5743 5740 5737 5734 5732 5729 5725 5721 5718 5715 5710 5704 5698 5692 5686 5683 5679 5676
5676 5684 5691 5700 5705 5714 5720 5723 5724 5723 5725 5737 5743 5741 5750 5749 5749 5751 5755 5755 5753 5750 5748 5746 5744 5741 5740 5737 5734 5731 5729 5726 5723 5720 5717 5713 5708 5703 5696 5690 5686 5682 5680 5678
5668 5674 5683 5693 5699 5707 5714 5710 5722 5724 5730 5732 5732 5743 5742 5744 5746 5749 5752 5751 5750 5747 5745 5742 5741 5738 5737 5734 5732 5730 5727 5724 5722 5719 5714 5711 5707 5702 5696 5691 5687 5683 5681 5681
5657 5664 5675 5685 5688 5695 5702 5702 5712 5712 5717 5720 5731 5736 5739 5741 5743 5746 5749 5748 5746 5745 5743 5739 5736 5736 5735 5732 5731 5728 5725 5723 5720 5717 5713 5710 5706 5701 5696 5692 5688 5685 5684 5685
5644 5653 5667 5673 5679 5688 5690 5690 5702 5708 5712 5719 5728 5733 5736 5737 5741 5744 5744 5745 5744 5743 5739 5736 5735 5735 5734 5731 5730 5727 5724 5722 5720 5717 5713 5711 5707 5702 5698 5694 5690 5688 5687 5689
5631 5640 5654 5668 5670 5679 5683 5692 5701 5704 5712 5717 5723 5730 5730 5733 5737 5740 5740 5741 5742 5740 5736 5735 5735 5734 5733 5731 5729 5727 5725 5722 5721 5718 5714 5712 5708 5704 5700 5697 5694 5692 5692 5693
5620 5632 5644 5652 5660 5669 5678 5686 5691 5699 5705 5710 5718 5725 5727 5730 5734 5736 5736 5739 5739 5736 5734 5734 5734 5733 5732 5730 5729 5727 5725 5723 5722 5719 5716 5714 5710 5706 5702 5701 5699 5696 5696 5697
5609 5623 5636 5646 5658 5672 5674 5678 5684 5692 5697 5709 5714 5719 5722 5727 5732 5735 5733 5737 5736 5734 5734 5734 5732 5732 5731 5730 5729 5728 5726 5724 5722 5719 5717 5715 5713 5708 5705 5704 5703 5702 5700 5701
5605 5621 5633 5646 5653 5662 5669 5677 5682 5687 5697 5700 5714 5717 5719 5724 5730 5731 5732 5733 5735 5733 5733 5732 5731 5731 5731 5730 5730 5729 5727 5725 5723 5721 5718 5717 5714 5711 5708 5707 5707 5706 5706 5705
5599 5612 5622 5635 5646 5654 5659 5667 5674 5683 5691 5698 5706 5711 5716 5721 5725 5726 5728 5731 5733 5732 5731 5731 5730 5731 5731 5730 5730 5730 5728 5726 5724 5723 5721 5719 5717 5715 5713 5712 5712 5711 5710 5709
5592 5604 5615 5632 5641 5648 5646 5656 5666 5678 5686 5695 5699 5709 5713 5716 5721 5723 5726 5729 5731 5731 5730 5729 5730 5730 5731 5731 5731 5731 5730 5728 5726 5725 5724 5722 5720 5719 5718 5716 5715 5714 5713 5714
5583 5595 5608 5623 5629 5628 5649 5658 5665 5674 5683 5691 5698 5705 5710 5714 5717 5720 5724 5727 5728 5729 5728 5728 5729 5730 5731 5731 5731 5731 5731 5730 5728 5728 5727 5725 5724 5724 5723 5721 5719 5719 5718 5719
5577 5587 5602 5614 5619 5635 5644 5654 5660 5667 5677 5687 5694 5701 5707 5711 5713 5715 5720 5724 5725 5727 5727 5727 5728 5729 5730 5732 5732 5732 5731 5731 5731 5731 5731 5729 5729 5727 5727 5727 5726 5725 5724 5723
5573 5582 5594 5603 5617 5623 5634 5645 5653 5663 5670 5679 5686 5691 5701 5705 5705 5713 5718 5721 5723 5724 5726 5726 5726 5728 5730 5732 5732 5732 5732 5732 5732 5733 5733 5733 5732 5732 5731 5731 5731 5731 5731 5730
5569 5576 5588 5593 5607 5615 5628 5639 5649 5654 5665 5670 5677 5683 5689 5696 5705 5711 5713 5716 5720 5723 5725 5724 5725 5727 5729 5731 5732 5732 5732 5733 5734 5734 5735 5735 5735 5736 5736 5735 5736 5735 5735 5736
5564 5573 5582 5589 5601 5609 5622 5631 5644 5648 5657 5664 5671 5677 5683 5692 5700 5704 5708 5711 5716 5719 5722 5723 5723 5725 5727 5729 5731 5732 5732 5733 5734 5735 5736 5736 5737 5739 5738 5738 5739 5740 5739 5740
5559 5563 5574 5586 5596 5605 5614 5625 5634 5642 5650 5658 5665 5673 5680 5686 5691 5699 5704 5707 5711 5716 5718 5720 5721 5723 5725 5727 5729 5731 5732 5732 5733 5735 5736 5737 5738 5740 5742 5741 5741 5742 5744 5744
5545 5555 5567 5583 5589 5600 5609 5619 5626 5635 5642 5651 5660 5667 5675 5682 5687 5693 5698 5702 5706 5710 5713 5716 5719 5720 5723 5725 5726 5729 5730 5732 5732 5734 5735 5737 5739 5741 5743 5744 5745 5745 5746 5747
5537 5548 5560 5575 5583 5592 5603 5612 5622 5628 5636 5644 5654 5662 5670 5677 5682 5686 5692 5698 5702 5706 5710 5713 5715 5718 5720 5722 5724 5726 5728 5730 5732 5733 5734 5736 5739 5741 5743 5745 5746 5747 5748 5749
5532 5541 5554 5567 5574 5584 5595 5605 5615 5621 5629 5639 5649 5655 5663 5670 5675 5681 5686 5693 5698 5701 5705 5708 5710 5713 5716 5718 5722 5724 5726 5728 5730 5732 5733 5735 5737 5740 5743 5744 5746 5747 5749 5750